[[{"header":{"parameterUnit":"m.s-1","parameterCategory":2,"la1":30.2991,"la2":30.254,"lo1":-89.0895,"lo2":-89.0444,"dy":0.0017,"dx":0.0017,"nx":28,"ny":28,"refTime":"2025-09-02T03:00:00:Z","depth":"0","parameterNumber":2,"parameterNumberName":"U-component_of_CURRENTS"},"data":[0,0,0,0,0,0,0,0,0,0,0,0,0,0,0,0,0,0,0,0,0,0,0,0,0,0,0,0,0,0,0,0,0,0,0,0,0,0,0,0,0,0,0,0,0,0,0,0,0,0,0,0,0,0,0,0,0,0,0.3975,0.3975,0,0.4017,0.4017,0.4017,0.4003,0.4003,0.4002,0.4002,0.3941,0.394,0.3939,0,0,0,0,0,0,0,0,0,0,0,0,0,0.3945,0.3945,0.3974,0.3975,0.3976,0.4017,0.4017,0.4018,0.4003,0.4003,0.4002,0.4002,0.3942,0.394,0.3939,0,0,0,0,0,0,0,0,0,0,0,0,0,0.3965,0.3945,0.3974,0.3977,0.3978,0.4017,0.4017,0.4018,0.4004,0.4003,0.4002,0.4001,0.3942,0.3941,0.3939,0.3944,0,0,0.3934,0.3933,0,0,0,0,0,0,0,0,0.3964,0.3966,0.3976,0.3977,0.3979,0.4008,0.3985,0.3989,0.4004,0.3989,0.4002,0.4001,0.3957,0.3955,0.396,0.3942,0.3939,0.3934,0.3933,0.3932,0.3931,0,0,0,0,0,0,0,0.3963,0.3964,0.3987,0.3977,0.3979,0.3999,0.4,0.3986,0.3972,0.3991,0.3991,0.4003,0.3957,0.3961,0.3958,0.3938,0.3934,0.3932,0.3931,0.393,0.397,0.3972,0,0,0,0,0,0,0.3964,0.3963,0.3986,0.3989,0.3974,0.4,0.4001,0.3996,0.3975,0.3973,0.4003,0.4002,0.3965,0.396,0.3956,0.4041,0.3932,0.393,0.3929,0.3968,0.397,0.3972,0,0,0,0,0,0,0.3962,0.3964,0.3984,0.3981,0.3986,0.4002,0.3996,0.3997,0.4009,0.3986,0.3981,0.4015,0.3964,0.3958,0.3975,0.4035,0.393,0.3928,0.3965,0.3968,0.3971,0.4161,0,0,0,0,0,0,0.3961,0.3963,0.396,0.3981,0.3986,0.4021,0.3997,0.3999,0.4019,0.4018,0.3995,0.3988,0.3963,0.3978,0.3974,0.4031,0.3927,0.3963,0.3967,0.397,0.4152,0.417,0.4185,0,0,0,0,0,0.3959,0.3964,0.3959,0.3962,0.3979,0.4022,0.4027,0.4033,0.4021,0.4038,0.4034,0.3989,0.3999,0.3979,0.3973,0.4032,0.3961,0.3966,0.397,0.4144,0.4166,0.4185,0,0,0,0,0,0,0.3936,0.3964,0.3958,0.3965,0.3997,0.4022,0.4041,0.4043,0.4054,0.4049,0.4019,0.4014,0.4057,0.4008,0.3988,0.4051,0.3971,0.3974,0.4105,0.4125,0.4142,0.4144,0.3925,0,0,0,0,0,0.3933,0.3949,0.3976,0.3984,0.4003,0.4022,0.4039,0.4047,0.4062,0.4066,0.4058,0.4048,0.4071,0.4069,0.4069,0.4096,0.4085,0.4125,0.4142,0.4157,0.4153,0.421,0.4233,0.3988,0.3987,0.3987,0,0,0.3928,0.3944,0.3953,0.3983,0.4005,0.4051,0.403,0.4066,0.4105,0.4056,0.4102,0.411,0.4093,0.4145,0.4157,0.4111,0.4227,0.4163,0.4176,0.4164,0.4218,0.4242,0.4263,0.3991,0.399,0.399,0,0,0.3946,0.3942,0.3972,0.4012,0.4057,0.4073,0.4089,0.4126,0.4141,0.4185,0.4183,0.4232,0.4223,0.4259,0.4266,0.4366,0.4322,0.4354,0.4436,0.4494,0.4515,0.4533,0.4586,0.4608,0.4354,0.4354,0.4355,0,0.3939,0.3974,0.3989,0.4043,0.4081,0.4089,0.4141,0.4169,0.4208,0.4234,0.4212,0.4287,0.4286,0.4379,0.4428,0.4409,0.4422,0.4371,0.452,0.4537,0.4553,0.4602,0.4623,0.4364,0.4363,0.4362,0.4361,0,0.3993,0.4029,0.4058,0.4123,0.4163,0.4212,0.4257,0.4291,0.4304,0.4334,0.4419,0.4443,0.4478,0.4511,0.4504,0.4625,0.4595,0.4549,0.4478,0.459,0.4633,0.4653,0.4378,0.4374,0.4371,0.4369,0,0,0.3959,0.4072,0.4084,0.4131,0.4211,0.4248,0.432,0.4387,0.444,0.4484,0.4564,0.4645,0.4652,0.4662,0.4679,0.4744,0.4901,0.4701,0.4699,0.4769,0.5034,0.4928,0.4937,0.4885,0.4888,0.4891,0.5034,0,0.3996,0.4105,0.4151,0.425,0.4308,0.4352,0.442,0.4483,0.4527,0.4606,0.4659,0.474,0.471,0.4758,0.482,0.4884,0.4952,0.4866,0.4898,0.4899,0.4805,0.4956,0.4708,0.4806,0.5052,0.5055,0.5057,0,0.4025,0.4103,0.4206,0.4319,0.4347,0.4405,0.4504,0.4569,0.4676,0.4714,0.4791,0.483,0.4959,0.4906,0.5051,0.4996,0.5026,0.5064,0.5069,0.4907,0.4827,0.4723,0.4829,0.4699,0.5085,0.5083,0.5081,0,0.3992,0.4128,0.4207,0.4255,0.4389,0.4435,0.4495,0.4599,0.4646,0.4794,0.4846,0.497,0.5037,0.5108,0.5168,0.5128,0.5312,0.5254,0.5187,0.518,0.4938,0.4903,0.4924,0.5352,0.5352,0.5351,0.5351,0,0.4007,0.4072,0.42,0.4257,0.4337,0.4435,0.4513,0.4594,0.4703,0.4771,0.4893,0.4972,0.509,0.519,0.5229,0.527,0.5351,0.5234,0.5221,0.4998,0.4968,0.4811,0.4766,0.5357,0.5356,0.5354,0.5354,0,0.3965,0.405,0.4145,0.4291,0.4323,0.4382,0.4482,0.454,0.4665,0.476,0.4815,0.4994,0.514,0.5239,0.5382,0.5331,0.5245,0.5386,0.5118,0.5069,0.4837,0.4811,0.4658,0.4525,0.534,0.5339,0.5337,0,0.3956,0.4006,0.4141,0.4177,0.4241,0.4324,0.4369,0.4492,0.4545,0.4757,0.4799,0.4999,0.5087,0.5264,0.5255,0.5314,0.5192,0.5109,0.4976,0.4821,0.4785,0.4625,0.4512,0.4756,0.475,0.4745,0.4741,0,0.3947,0.3987,0.4068,0.4124,0.4175,0.4234,0.4312,0.4336,0.4488,0.4572,0.4713,0.4822,0.4985,0.4941,0.5024,0.5025,0.4839,0.5006,0.4915,0.4396,0.4152,0.4015,0.4679,0.4697,0.4702,0.4705,0.4707,0.4709,0.3916,0.3949,0.4021,0.4054,0.4101,0.413,0.4108,0.4197,0.4246,0.4322,0.4524,0.4574,0.4649,0.4719,0.4697,0.4493,0.453,0.4339,0.435,0.4225,0.3989,0.4561,0.451,0.4513,0.4516,0.4519,0.4521,0,0.3863,0.3898,0.3938,0.3959,0.3931,0.4004,0.4039,0.3973,0.3954,0.4094,0.4159,0.4168,0.4133,0.4173,0.4041,0.3857,0.3686,0.3766,0.3486,0.3432,0.4,0.3864,0.3583,0.3584,0.3584,0.3584,0.3584,0.3584,0.3839,0.3834,0.3839,0.3757,0.3762,0.3656,0.3633,0.3579,0.3603,0.355,0.3523,0.3601,0.3748,0.3747,0.3538,0.3434,0.3175,0.3003,0.3069,0.3475,0.3528,0.3578,0.344,0.3075,0.3074,0.2297,0.2292,0.2287]},{"header":{"parameterUnit":"m.s-1","parameterCategory":2,"la1":30.2991,"la2":30.254,"lo1":-89.0895,"lo2":-89.0444,"dy":0.0017,"dx":0.0017,"nx":28,"ny":28,"refTime":"2025-09-02T03:00:00:Z","depth":"0","parameterNumber":3,"parameterNumberName":"V-component_of_CURRENTS"},"data":[0,0,0,0,0,0,0,0,0,0,0,0,0,0,0,0,0,0,0,0,0,0,0,0,0,0,0,0,0,0,0,0,0,0,0,0,0,0,0,0,0,0,0,0,0,0,0,0,0,0,0,0,0,0,0,0,0,0,0.0201,0.02,0,0.0144,0.0143,0.0142,0.0108,0.0108,0.0108,0.0108,0.0012,0.0009,0.0006,0,0,0,0,0,0,0,0,0,0,0,0,0,0.0225,0.0225,0.0201,0.02,0.02,0.0144,0.0143,0.0142,0.0108,0.0108,0.0108,0.0108,0.0012,0.0009,0.0006,0,0,0,0,0,0,0,0,0,0,0,0,0,0.0194,0.0225,0.0201,0.0177,0.0175,0.0144,0.0143,0.0142,0.0108,0.0108,0.0108,0.0108,0.0013,0.001,0.0006,-0.0019,0,0,-0.0006,-0.0008,0,0,0,0,0,0,0,0,0.0196,0.0193,0.0181,0.0179,0.0176,0.0135,0.0116,0.0087,0.0108,0.0132,0.0108,0.0108,0.005,0.0043,0.003,-0.0023,-0.0027,-0.0006,-0.0009,-0.0011,-0.0012,0,0,0,0,0,0,0,0.0198,0.0195,0.0176,0.0181,0.0178,0.0151,0.0147,0.011,0.0089,0.013,0.0127,0.0124,0.0048,0.0034,0.0028,-0.0029,-0.0006,-0.001,-0.0012,-0.0014,-0.0107,-0.0108,0,0,0,0,0,0,0.0212,0.0198,0.0178,0.0175,0.0189,0.0151,0.0146,0.0147,0.009,0.0083,0.0124,0.0123,0.0041,0.0032,0.0024,0.0007,-0.001,-0.0014,-0.0016,-0.0107,-0.0107,-0.0108,0,0,0,0,0,0,0.0213,0.0211,0.018,0.0186,0.0181,0.0151,0.0151,0.0146,0.0136,0.0087,0.0078,0.0122,0.0041,0.003,-0.0001,0.0003,-0.0016,-0.0019,-0.0107,-0.0107,-0.0108,-0.0037,0,0,0,0,0,0,0.0214,0.0212,0.0217,0.0187,0.0181,0.0172,0.0151,0.0144,0.0135,0.0132,0.0082,0.0073,0.004,0.0005,-0.0005,-0.0003,-0.0022,-0.0107,-0.0107,-0.0107,-0.0039,-0.0035,-0.0031,0,0,0,0,0,0.0215,0.0228,0.0218,0.0215,0.0189,0.0172,0.0167,0.0144,0.0135,0.0134,0.01,0.0074,-0.0004,0.0002,-0.001,-0.0009,-0.0107,-0.0107,-0.0107,-0.0041,-0.0036,-0.0031,0,0,0,0,0,0,0.0247,0.0225,0.0213,0.0221,0.0201,0.0168,0.0168,0.0149,0.0122,0.0119,0.0073,0.0061,0.0033,0.0001,0.0009,-0.0038,-0.0061,-0.0063,-0.0006,-0.0002,0.0002,0.0038,-0.0026,0,0,0,0,0,0.0255,0.0255,0.0231,0.0235,0.023,0.0199,0.0189,0.0172,0.0144,0.0133,0.0097,0.0057,0.002,0.0003,-0.0036,-0.0059,-0.0063,-0.0068,-0.0063,-0.006,-0.004,-0.0035,-0.0027,-0.0109,-0.0109,-0.0109,0,0,0.0267,0.0257,0.0256,0.0241,0.0225,0.0224,0.0193,0.0184,0.0182,0.0125,0.0111,0.0067,0.0016,-0.001,-0.0025,-0.0033,-0.0042,-0.006,-0.0056,-0.0038,-0.0034,-0.0026,-0.0019,-0.0109,-0.0109,-0.0109,0,0,0.0297,0.0285,0.0296,0.0284,0.0265,0.0246,0.0247,0.0215,0.0201,0.0176,0.0137,0.0105,0.0044,0.0018,-0.0005,-0.0003,-0.0023,-0.0025,0.0029,0.0033,0.0041,0.0047,0.0049,0.0055,-0.0019,-0.0019,-0.0019,0,0.0314,0.0325,0.0297,0.0305,0.0305,0.0261,0.0277,0.0253,0.0214,0.0215,0.0181,0.0116,0.0062,0.0052,0.0043,0.0009,0.001,0.0018,0.0042,0.0048,0.0054,0.0054,0.006,-0.0015,-0.0016,-0.0016,-0.0016,0,0.0351,0.0358,0.0366,0.0362,0.0356,0.036,0.033,0.0322,0.0294,0.0273,0.0252,0.0183,0.0152,0.012,0.0076,0.0087,0.0073,0.0047,0.0039,0.0067,0.0064,0.0069,-0.0011,-0.0012,-0.0013,-0.0014,0,0,0.0397,0.0394,0.0397,0.0412,0.0389,0.0395,0.0393,0.0392,0.0415,0.0355,0.0386,0.0294,0.0263,0.0235,0.0179,0.0172,0.0189,0.013,0.0128,0.0149,0.0206,0.0186,0.0189,0.0174,0.0175,0.0176,0.0187,0,0.0438,0.0471,0.0457,0.0492,0.0508,0.048,0.0494,0.0484,0.0463,0.0478,0.0415,0.0409,0.0305,0.03,0.0271,0.022,0.0207,0.0189,0.0161,0.016,0.0153,0.0196,0.0195,0.0205,0.0192,0.0193,0.0194,0,0.0484,0.05,0.0544,0.0573,0.0582,0.0601,0.0634,0.0639,0.0638,0.0623,0.0599,0.0554,0.0524,0.0438,0.0368,0.0365,0.0289,0.0242,0.0241,0.0207,0.0151,0.0173,0.0214,0.0034,0.0201,0.0201,0.02,0,0.0538,0.0567,0.0609,0.0614,0.0636,0.0667,0.0685,0.0693,0.0729,0.073,0.0767,0.07,0.0696,0.0601,0.0471,0.0429,0.0416,0.0343,0.0254,0.0252,0.0239,0.0233,0.0121,0.0303,0.0303,0.0303,0.0303,0,0.059,0.0628,0.0645,0.0669,0.0746,0.0737,0.0822,0.0824,0.0867,0.0948,0.0855,0.0918,0.074,0.07,0.0553,0.0437,0.0473,0.0286,0.0263,0.026,0.0256,0.0087,-0.0025,0.0303,0.0303,0.0303,0.0303,0,0.0646,0.0652,0.0707,0.0748,0.0774,0.0831,0.092,0.0983,0.1005,0.1114,0.1131,0.11,0.1051,0.0877,0.0741,0.0562,0.0342,0.0388,0.0394,0.0371,0.0086,-0.002,-0.0145,-0.0221,0.0287,0.0287,0.0287,0,0.0681,0.0711,0.0772,0.0825,0.0853,0.0936,0.1007,0.1046,0.1124,0.1247,0.1322,0.1312,0.134,0.1125,0.0821,0.0581,0.0381,0.038,0.0279,0.0093,-0.0043,-0.0128,-0.0189,0.0286,0.0285,0.0285,0.0285,0,0.0749,0.0765,0.0812,0.0913,0.0996,0.1088,0.1195,0.1282,0.1363,0.1486,0.165,0.1702,0.1494,0.1255,0.0884,0.0692,0.0242,0.0367,0.0179,-0.004,-0.0143,-0.0233,0.0248,0.0284,0.0284,0.0284,0.0284,0.0284,0.0805,0.0852,0.0915,0.1018,0.1109,0.1234,0.1338,0.1475,0.1649,0.1864,0.19,0.2033,0.1621,0.1131,0.0841,0.0251,0.0238,0.0046,-0.0061,-0.0125,-0.0221,0.0255,0.0255,0.0255,0.0255,0.0255,0.0255,0,0.0878,0.0931,0.1023,0.1139,0.1246,0.1282,0.1462,0.1588,0.1823,0.205,0.2223,0.2109,0.1624,0.109,0.0291,-0.0112,-0.0265,-0.0335,-0.0467,-0.0505,-0.0068,-0.0094,-0.0175,-0.0175,-0.0175,-0.0174,-0.0174,-0.0174,0.0923,0.1018,0.1061,0.1237,0.1322,0.148,0.159,0.1795,0.1985,0.2264,0.2376,0.243,0.1972,0.0588,-0.0318,-0.0509,-0.0806,-0.0874,-0.1002,-0.0733,-0.0707,-0.0681,-0.0731,-0.0945,-0.0946,-0.1388,-0.1393,-0.1397]}],[{"header":{"parameterUnit":"m.s-1","parameterCategory":2,"la1":30.2991,"la2":30.254,"lo1":-89.0895,"lo2":-89.0444,"dy":0.0017,"dx":0.0017,"nx":28,"ny":28,"refTime":"2025-09-02T03:00:00:Z","depth":"2","parameterNumber":2,"parameterNumberName":"U-component_of_CURRENTS"},"data":[0,0,0,0,0,0,0,0,0,0,0,0,0,0,0,0,0,0,0,0,0,0,0,0,0,0,0,0,0,0,0,0,0,0,0,0,0,0,0,0,0,0,0,0,0,0,0,0,0,0,0,0,0,0,0,0,0,0,0.2993,0.2994,0,0.2992,0.2991,0.299,0.2967,0.2967,0.2968,0.2968,0.2965,0.2965,0.2965,0,0,0,0,0,0,0,0,0,0,0,0,0,0.2915,0.2916,0.2993,0.2994,0.2995,0.2992,0.2991,0.299,0.2967,0.2967,0.2968,0.2968,0.2966,0.2965,0.2965,0,0,0,0,0,0,0,0,0,0,0,0,0,0.2926,0.2916,0.2993,0.299,0.299,0.2992,0.2991,0.299,0.2967,0.2967,0.2968,0.2968,0.2966,0.2965,0.2965,0.2954,0,0,0.2963,0.2963,0,0,0,0,0,0,0,0,0.2925,0.2927,0.299,0.299,0.2991,0.2988,0.2963,0.2981,0.2967,0.2966,0.2968,0.2968,0.2979,0.2977,0.2963,0.2954,0.2954,0.2963,0.2963,0.2963,0.2963,0,0,0,0,0,0,0,0.2924,0.2927,0.2983,0.2991,0.2992,0.2968,0.297,0.2965,0.2963,0.2966,0.2967,0.2981,0.2978,0.2963,0.2963,0.2954,0.2963,0.2963,0.2963,0.2962,0.3058,0.306,0,0,0,0,0,0,0.2947,0.2927,0.2983,0.2984,0.2969,0.297,0.2971,0.2981,0.2963,0.2963,0.2981,0.298,0.2964,0.2963,0.2963,0.3045,0.2963,0.2962,0.2962,0.3055,0.3058,0.3061,0,0,0,0,0,0,0.2945,0.2951,0.2984,0.2963,0.2967,0.2973,0.2983,0.2981,0.2993,0.2976,0.2974,0.3,0.2964,0.2963,0.2997,0.3041,0.2962,0.2962,0.3052,0.3056,0.306,0.3147,0,0,0,0,0,0,0.2942,0.295,0.2972,0.2965,0.2969,0.3003,0.2983,0.2981,0.3005,0.3004,0.2991,0.2989,0.2964,0.2998,0.2997,0.3039,0.2961,0.3048,0.3054,0.3059,0.3141,0.3154,0.3165,0,0,0,0,0,0.2939,0.2959,0.2973,0.2981,0.2996,0.3005,0.3004,0.3002,0.3006,0.3013,0.3021,0.2991,0.3031,0.3,0.2997,0.304,0.3046,0.3052,0.3058,0.3136,0.3152,0.3165,0,0,0,0,0,0,0.2942,0.296,0.2974,0.3001,0.3017,0.3005,0.3015,0.3022,0.303,0.3045,0.3017,0.3017,0.306,0.3047,0.3013,0.3088,0.3037,0.3044,0.3097,0.3112,0.3124,0.3118,0.2961,0,0,0,0,0,0.2956,0.2964,0.299,0.301,0.3024,0.3027,0.3036,0.3049,0.3055,0.3059,0.3045,0.3056,0.308,0.3094,0.3095,0.3134,0.3143,0.3166,0.3179,0.3189,0.3186,0.3274,0.3293,0.3082,0.3082,0.3082,0,0,0.2953,0.2973,0.2974,0.301,0.3017,0.3042,0.3031,0.3062,0.3101,0.306,0.3092,0.309,0.3099,0.3141,0.3161,0.3139,0.3254,0.3197,0.3205,0.3197,0.3282,0.3303,0.3321,0.3087,0.3086,0.3085,0,0,0.2968,0.2983,0.3007,0.3004,0.3048,0.307,0.3092,0.3105,0.3132,0.3173,0.3164,0.3196,0.3207,0.3226,0.3241,0.3327,0.331,0.3333,0.3393,0.348,0.3497,0.3513,0.3544,0.3562,0.3346,0.3346,0.3347,0,0.2967,0.3015,0.3015,0.3028,0.3046,0.309,0.3129,0.3158,0.3183,0.3209,0.3203,0.3249,0.3252,0.3326,0.3354,0.3353,0.3381,0.3333,0.3495,0.3511,0.3525,0.3554,0.3572,0.3351,0.3351,0.335,0.335,0,0.2988,0.3028,0.3036,0.3077,0.3094,0.3133,0.3182,0.3213,0.3262,0.3288,0.3363,0.3377,0.3408,0.3423,0.3413,0.352,0.3498,0.3494,0.3453,0.3552,0.3575,0.3593,0.3359,0.3357,0.3355,0.3354,0,0,0.2973,0.3049,0.3043,0.3064,0.3131,0.3127,0.3219,0.3302,0.3355,0.3396,0.3466,0.3516,0.3526,0.3546,0.3554,0.3619,0.3742,0.3604,0.3606,0.3626,0.3905,0.3786,0.3793,0.3776,0.378,0.3783,0.3877,0,0.3006,0.3049,0.3095,0.3131,0.3161,0.3203,0.3275,0.3335,0.3415,0.348,0.3544,0.3614,0.3585,0.3623,0.3688,0.3734,0.3794,0.3714,0.3814,0.3816,0.3692,0.3813,0.3513,0.3564,0.3894,0.3897,0.3899,0,0.3008,0.3049,0.3094,0.3168,0.3184,0.3218,0.3308,0.339,0.3509,0.3563,0.3648,0.3696,0.3806,0.3775,0.3912,0.3867,0.3892,0.3913,0.3918,0.3785,0.3731,0.3522,0.3583,0.3928,0.3926,0.3924,0.3922,0,0.2949,0.3035,0.3077,0.3072,0.3164,0.3203,0.33,0.341,0.3496,0.3642,0.3702,0.3826,0.3914,0.3985,0.403,0.3999,0.4158,0.4127,0.4033,0.4023,0.3773,0.3734,0.4222,0.4222,0.4222,0.4222,0.4221,0,0.2938,0.2949,0.3042,0.3023,0.3111,0.3176,0.33,0.3388,0.3541,0.3636,0.3761,0.3838,0.3978,0.4073,0.4089,0.4118,0.4222,0.4059,0.4058,0.3792,0.3756,0.4068,0.4049,0.4225,0.4224,0.4224,0.4223,0,0.2843,0.2896,0.2916,0.3015,0.3076,0.3115,0.3325,0.3387,0.3551,0.3684,0.3741,0.39,0.4018,0.4111,0.4233,0.4191,0.4229,0.4201,0.3852,0.3807,0.4014,0.3998,0.4122,0.4119,0.4117,0.4115,0.4113,0,0.2802,0.2822,0.2886,0.2915,0.2971,0.3094,0.319,0.3379,0.346,0.3688,0.3723,0.39,0.395,0.4083,0.4078,0.4104,0.4183,0.3821,0.3703,0.4026,0.4013,0.4002,0.399,0.3405,0.3398,0.3392,0.3387,0,0.2758,0.2759,0.2778,0.2862,0.2927,0.3012,0.3177,0.3231,0.343,0.352,0.3615,0.3681,0.3819,0.3711,0.3775,0.3743,0.3797,0.3695,0.4175,0.3468,0.3355,0.3341,0.3352,0.3333,0.3338,0.3342,0.3345,0.3347,0.2716,0.2722,0.2751,0.2825,0.2881,0.2905,0.2942,0.3046,0.313,0.3207,0.3384,0.3375,0.3447,0.3371,0.3285,0.3248,0.35,0.335,0.3367,0.3391,0.3283,0.3171,0.3091,0.3095,0.3098,0.3101,0.3104,0,0.2675,0.2699,0.2745,0.2773,0.275,0.2829,0.2893,0.2852,0.2838,0.294,0.298,0.2784,0.2737,0.2817,0.2673,0.2682,0.2642,0.2577,0.2498,0.2556,0.2606,0.2455,0.2045,0.2042,0.2038,0.2035,0,0,0.264,0.2645,0.2672,0.2627,0.2645,0.2554,0.253,0.2473,0.2493,0.2401,0.2385,0.2597,0.2734,0.2344,0.2311,0.2147,0.2325,0.2067,0.2927,0.2893,0.2938,0.3078,0.2914,0,0,0,0,0]},{"header":{"parameterUnit":"m.s-1","parameterCategory":2,"la1":30.2991,"la2":30.254,"lo1":-89.0895,"lo2":-89.0444,"dy":0.0017,"dx":0.0017,"nx":28,"ny":28,"refTime":"2025-09-02T03:00:00:Z","depth":"2","parameterNumber":3,"parameterNumberName":"V-component_of_CURRENTS"},"data":[0,0,0,0,0,0,0,0,0,0,0,0,0,0,0,0,0,0,0,0,0,0,0,0,0,0,0,0,0,0,0,0,0,0,0,0,0,0,0,0,0,0,0,0,0,0,0,0,0,0,0,0,0,0,0,0,0,0,0.0113,0.0112,0,0.0061,0.006,0.006,0.0027,0.0027,0.0027,0.0027,-0.005,-0.0052,-0.0054,0,0,0,0,0,0,0,0,0,0,0,0,0,0.0133,0.0133,0.0113,0.0112,0.0111,0.0061,0.006,0.006,0.0027,0.0027,0.0027,0.0027,-0.005,-0.0052,-0.0054,0,0,0,0,0,0,0,0,0,0,0,0,0,0.0107,0.0133,0.0113,0.0089,0.0087,0.0061,0.006,0.0059,0.0027,0.0027,0.0027,0.0027,-0.0049,-0.0052,-0.0055,-0.0068,0,0,-0.0063,-0.0065,0,0,0,0,0,0,0,0,0.0108,0.0106,0.0094,0.0091,0.0088,0.0051,0.0039,0.0016,0.0027,0.005,0.0027,0.0027,-0.0019,-0.0024,-0.0033,-0.0071,-0.0075,-0.0064,-0.0065,-0.0067,-0.0067,0,0,0,0,0,0,0,0.011,0.0108,0.0092,0.0093,0.009,0.0064,0.0061,0.0034,0.0017,0.0048,0.0045,0.004,-0.002,-0.003,-0.0035,-0.0076,-0.0064,-0.0066,-0.0068,-0.0069,-0.0132,-0.0132,0,0,0,0,0,0,0.012,0.011,0.0094,0.009,0.0098,0.0064,0.006,0.0063,0.0018,0.0011,0.004,0.0039,-0.0025,-0.0032,-0.0038,-0.0041,-0.0067,-0.0069,-0.0071,-0.0132,-0.0132,-0.0132,0,0,0,0,0,0,0.0121,0.0119,0.0096,0.0098,0.0094,0.0065,0.0067,0.0062,0.0053,0.0012,0.0005,0.0038,-0.0026,-0.0034,-0.0055,-0.0045,-0.0071,-0.0073,-0.0132,-0.0132,-0.0132,-0.0058,0,0,0,0,0,0,0.0122,0.012,0.0125,0.01,0.0094,0.009,0.0067,0.0061,0.005,0.0048,0.0007,-0.0,-0.0027,-0.005,-0.0058,-0.005,-0.0075,-0.0132,-0.0132,-0.0132,-0.006,-0.0055,-0.0051,0,0,0,0,0,0.0123,0.0136,0.0126,0.0124,0.0102,0.0091,0.0086,0.0063,0.0051,0.0053,0.0025,0.0001,-0.0055,-0.0052,-0.0061,-0.0054,-0.0132,-0.0132,-0.0132,-0.0062,-0.0056,-0.0051,0,0,0,0,0,0,0.0151,0.0133,0.0122,0.0129,0.0114,0.0086,0.0085,0.0068,0.0047,0.0042,0.0004,-0.0005,-0.0021,-0.005,-0.0046,-0.0073,-0.0099,-0.01,-0.0043,-0.0038,-0.0033,0.0001,-0.0078,0,0,0,0,0,0.0158,0.0161,0.014,0.0145,0.014,0.0112,0.0104,0.0089,0.0066,0.0057,0.0029,-0.0004,-0.0028,-0.0041,-0.0069,-0.0082,-0.0105,-0.0086,-0.0081,-0.0076,-0.0056,-0.0082,-0.0077,-0.0131,-0.0131,-0.0131,0,0,0.0169,0.016,0.0161,0.015,0.0136,0.0142,0.0107,0.01,0.0105,0.0051,0.0049,0.0012,-0.0029,-0.0041,-0.0052,-0.0063,-0.0076,-0.0076,-0.0072,-0.0053,-0.0081,-0.0076,-0.0071,-0.0131,-0.0131,-0.0131,0,0,0.0197,0.0186,0.0199,0.0194,0.0178,0.0161,0.0163,0.0137,0.0128,0.0114,0.008,0.0056,0.0011,-0.0006,-0.0023,-0.0009,-0.0051,-0.0029,0.0025,-0.0001,0.0004,0.0008,-0.0022,-0.0021,-0.0026,-0.0026,-0.0026,0,0.0212,0.0228,0.0201,0.0217,0.022,0.0177,0.0197,0.0182,0.0153,0.0156,0.0122,0.0073,0.0034,0.0034,0.0035,0.0005,-0.0021,0.001,0.0008,0.0011,0.0014,-0.0018,-0.0018,-0.0022,-0.0022,-0.0023,-0.0023,0,0.0256,0.0267,0.0276,0.0282,0.0281,0.0289,0.0268,0.0269,0.0242,0.0223,0.021,0.0152,0.0128,0.0103,0.0071,0.0075,0.0046,0.0017,-0.0,0.0024,-0.0012,-0.0013,-0.0017,-0.0018,-0.0019,-0.002,0,0,0.0296,0.0305,0.031,0.0334,0.0318,0.0332,0.0341,0.0346,0.0373,0.0318,0.0344,0.028,0.0243,0.0222,0.0173,0.0148,0.0133,0.0096,0.0093,0.008,0.0071,0.0042,0.0037,0.0101,0.0101,0.0102,0.0036,0,0.034,0.0391,0.0377,0.0428,0.0454,0.0432,0.0452,0.045,0.0431,0.0444,0.0381,0.037,0.0289,0.0277,0.0239,0.0168,0.0134,0.0153,0.0039,0.0036,0.0018,0.0036,0.0064,0.0008,0.0034,0.0034,0.0034,0,0.0392,0.0421,0.0474,0.052,0.0531,0.0553,0.0596,0.0608,0.0603,0.0589,0.0559,0.0501,0.046,0.0381,0.027,0.0285,0.0188,0.012,0.0115,0.0067,0.0005,-0.0013,0.0004,0.0031,0.0031,0.0032,0.0032,0,0.0448,0.0497,0.0546,0.056,0.0594,0.0626,0.0645,0.0653,0.0691,0.0681,0.0705,0.0622,0.06,0.0471,0.0313,0.0292,0.019,0.0139,0.002,0.0016,0.001,0.0005,0.006,0.006,0.006,0.006,0.0061,0,0.0504,0.0553,0.0583,0.0615,0.0699,0.0694,0.0772,0.0787,0.0815,0.0882,0.0783,0.0812,0.0622,0.0532,0.0365,0.0197,0.0221,0.0043,0.0004,0.0033,0.0031,0.0028,0.0025,0.0058,0.0058,0.0059,0.0059,0,0.0561,0.0571,0.0645,0.0698,0.0724,0.0788,0.0867,0.0928,0.0939,0.1027,0.103,0.0965,0.0843,0.0643,0.0444,0.0282,0.011,0.0038,0.0083,0.005,-0.0063,-0.0061,-0.0097,-0.0098,-0.0099,-0.01,-0.0101,0,0.0594,0.0632,0.0715,0.0773,0.0802,0.0887,0.095,0.0986,0.1062,0.1128,0.1188,0.1097,0.1048,0.074,0.0443,0.0153,0.0109,-0.0018,-0.0058,-0.0041,-0.0076,-0.0072,-0.0069,-0.0045,-0.0045,-0.0045,-0.0045,0,0.0666,0.0689,0.0751,0.0862,0.0942,0.1042,0.114,0.1221,0.1283,0.1354,0.1422,0.1382,0.11,0.081,0.0413,0.0216,0.0028,-0.0034,-0.0013,-0.0009,0.0003,-0.003,-0.0028,-0.0048,-0.0048,-0.0047,-0.0047,-0.0047,0.0722,0.0782,0.0856,0.0966,0.106,0.1184,0.1275,0.1383,0.1506,0.1604,0.1578,0.1522,0.1204,0.069,0.0355,0.0005,0.0016,-0.0117,-0.0114,-0.0111,-0.0093,-0.0084,-0.0147,-0.0148,-0.0148,-0.0148,-0.0148,0,0.0799,0.0859,0.0962,0.1086,0.1188,0.1227,0.1395,0.1478,0.1622,0.1689,0.1716,0.1417,0.1102,0.0737,0.022,-0.0092,-0.0111,-0.0192,-0.0145,-0.014,-0.0137,-0.0119,-0.0181,-0.0182,-0.0183,-0.0184,0,0,0.0844,0.0946,0.0992,0.1161,0.1248,0.1384,0.1475,0.1601,0.1684,0.1723,0.1687,0.1617,0.12,0.0819,0.0403,0.011,0.0053,0.0049,0.011,0.0219,0.0226,-0.0059,-0.0021,0,0,0,0,0]}],[{"header":{"parameterUnit":"m.s-1","parameterCategory":2,"la1":30.2991,"la2":30.254,"lo1":-89.0895,"lo2":-89.0444,"dy":0.0017,"dx":0.0017,"nx":28,"ny":28,"refTime":"2025-09-02T03:00:00:Z","depth":"4","parameterNumber":2,"parameterNumberName":"U-component_of_CURRENTS"},"data":[0,0,0,0,0,0,0,0,0,0,0,0,0,0,0,0,0,0,0,0,0,0,0,0,0,0,0,0,0,0,0,0,0,0,0,0,0,0,0,0,0,0,0,0,0,0,0,0,0,0,0,0,0,0,0,0,0,0,0.1648,0.1649,0,0.1685,0.1686,0.1686,0.173,0.173,0.1731,0.1731,0.1814,0.1816,0.1818,0,0,0,0,0,0,0,0,0,0,0,0,0,0.156,0.1561,0.1648,0.1649,0.1649,0.1685,0.1686,0.1687,0.1729,0.173,0.1731,0.1731,0.1814,0.1816,0.1818,0,0,0,0,0,0,0,0,0,0,0,0,0,0.1599,0.1562,0.1648,0.1673,0.1676,0.1685,0.1686,0.1687,0.1729,0.173,0.1731,0.1732,0.1813,0.1816,0.1818,0.182,0,0,0.1826,0.1828,0,0,0,0,0,0,0,0,0.1597,0.1603,0.1669,0.1672,0.1674,0.1702,0.1685,0.1733,0.1729,0.1711,0.1731,0.1732,0.1779,0.1785,0.1792,0.1824,0.1827,0.1827,0.1828,0.1829,0.183,0,0,0,0,0,0,0,0.1594,0.1601,0.1665,0.167,0.1673,0.1664,0.1671,0.1694,0.1743,0.1713,0.1715,0.1716,0.1782,0.1789,0.1794,0.1828,0.1827,0.1829,0.1831,0.1832,0.1951,0.1953,0,0,0,0,0,0,0.1589,0.1599,0.1664,0.1666,0.1635,0.1665,0.1673,0.1694,0.1742,0.1749,0.1716,0.1718,0.1784,0.1791,0.1798,0.1866,0.1829,0.1832,0.1833,0.195,0.1952,0.1953,0,0,0,0,0,0,0.1587,0.1595,0.1662,0.163,0.1638,0.1666,0.1689,0.1694,0.1737,0.1743,0.1752,0.1757,0.1785,0.1794,0.1844,0.1867,0.1833,0.1835,0.1948,0.195,0.1952,0.1962,0,0,0,0,0,0,0.1585,0.1595,0.1627,0.1631,0.164,0.168,0.1688,0.1694,0.1734,0.1738,0.1781,0.1787,0.1787,0.184,0.1847,0.187,0.1837,0.1946,0.1949,0.1952,0.196,0.1964,0.1968,0,0,0,0,0,0.1582,0.1605,0.1628,0.1637,0.1677,0.168,0.1685,0.1707,0.1735,0.1751,0.1786,0.1788,0.1864,0.1843,0.1851,0.1875,0.1944,0.1948,0.1952,0.1958,0.1963,0.1968,0,0,0,0,0,0,0.1588,0.1612,0.1637,0.1672,0.1685,0.1687,0.1709,0.1729,0.177,0.179,0.1805,0.1814,0.1865,0.1876,0.1853,0.1922,0.1906,0.1911,0.1908,0.1914,0.1918,0.1957,0.184,0,0,0,0,0,0.1604,0.163,0.1646,0.1678,0.169,0.1713,0.1727,0.1741,0.1766,0.1787,0.1819,0.1855,0.1879,0.1902,0.1925,0.1964,0.1996,0.1988,0.1993,0.1996,0.2035,0.2094,0.2107,0.1965,0.1965,0.1965,0,0,0.1609,0.1633,0.1646,0.1682,0.1702,0.1717,0.1725,0.1751,0.178,0.1789,0.1857,0.1874,0.1895,0.1932,0.1957,0.1949,0.2049,0.2001,0.2003,0.2041,0.2099,0.2113,0.2125,0.1968,0.1967,0.1967,0,0,0.1614,0.1664,0.1681,0.1693,0.1725,0.1741,0.1758,0.1786,0.1822,0.1872,0.1886,0.193,0.1973,0.199,0.2002,0.2054,0.2069,0.2056,0.2111,0.2167,0.2179,0.219,0.2226,0.224,0.2059,0.2059,0.2059,0,0.1627,0.1652,0.1684,0.1698,0.1714,0.1758,0.1772,0.1811,0.1856,0.1894,0.1901,0.1993,0.2004,0.2056,0.2071,0.2065,0.2095,0.208,0.2172,0.2184,0.2196,0.223,0.2246,0.206,0.206,0.206,0.206,0,0.1627,0.1657,0.1667,0.1709,0.1735,0.175,0.1798,0.1855,0.1912,0.1944,0.2029,0.2055,0.2117,0.2112,0.2109,0.2191,0.2184,0.2165,0.2154,0.221,0.2242,0.2259,0.2061,0.2061,0.2061,0.206,0,0,0.1619,0.1659,0.1665,0.1683,0.174,0.1756,0.1832,0.1898,0.1969,0.2028,0.2111,0.2157,0.2199,0.222,0.2224,0.227,0.2354,0.2261,0.2264,0.2291,0.2476,0.2315,0.2317,0.235,0.2353,0.2356,0.2457,0,0.1611,0.1632,0.1661,0.1693,0.1707,0.1776,0.1841,0.1917,0.2002,0.2097,0.2156,0.2237,0.223,0.2273,0.2321,0.2353,0.2404,0.233,0.2426,0.2429,0.2274,0.2333,0.2367,0.2469,0.2473,0.2475,0.2477,0,0.1597,0.1613,0.164,0.1693,0.171,0.1752,0.1882,0.1943,0.2084,0.2156,0.2263,0.232,0.2421,0.2399,0.2518,0.2473,0.2498,0.2511,0.2514,0.2383,0.23,0.241,0.2507,0.2505,0.2503,0.2501,0.2499,0,0.1561,0.1597,0.1625,0.1637,0.1711,0.1765,0.183,0.197,0.2051,0.2219,0.2302,0.2422,0.2503,0.2567,0.2619,0.2585,0.2729,0.2675,0.2555,0.2544,0.2653,0.264,0.2773,0.2773,0.2773,0.2773,0.2772,0,0.1519,0.1533,0.1618,0.1621,0.1686,0.1753,0.1865,0.1956,0.2108,0.2202,0.234,0.2435,0.2557,0.2646,0.2667,0.2667,0.2778,0.2594,0.257,0.265,0.2636,0.2663,0.2649,0.2776,0.2776,0.2775,0.2774,0,0.1446,0.15,0.1535,0.1626,0.1666,0.172,0.1871,0.1945,0.2108,0.2242,0.2304,0.2484,0.2594,0.2683,0.2786,0.2715,0.2735,0.2707,0.2805,0.278,0.2498,0.2484,0.2578,0.2573,0.2569,0.2566,0.2563,0,0.1401,0.1412,0.1532,0.1573,0.1615,0.1715,0.1782,0.1939,0.2021,0.2249,0.229,0.2468,0.2567,0.2587,0.2687,0.2724,0.269,0.268,0.2577,0.2517,0.2485,0.2476,0.2467,0.2557,0.2556,0.2555,0.2554,0,0.1312,0.1382,0.1417,0.1509,0.1584,0.1645,0.1751,0.1801,0.1977,0.2147,0.2238,0.2309,0.2421,0.2493,0.2546,0.2563,0.2671,0.2639,0.2645,0.2549,0.2493,0.2463,0.2459,0.2541,0.2542,0.2544,0.2545,0,0.1268,0.1278,0.1364,0.1427,0.1515,0.1538,0.1605,0.1688,0.1786,0.2025,0.2055,0.2232,0.2395,0.2412,0.2464,0.2469,0.2421,0.2328,0.235,0.2366,0.2249,0.2145,0.2088,0,0,0,0,0,0.1219,0.1216,0.1271,0.1326,0.1403,0.1453,0.1567,0.1639,0.182,0.1828,0.1936,0.2032,0.2115,0.2218,0.218,0.2366,0.2424,0.2311,0.2326,0.2466,0.2481,0.2363,0,0,0,0,0,0,0.118,0.1225,0.1238,0.1239,0.1253,0.1308,0.1371,0.1475,0.1499,0.1696,0.1757,0.1912,0.2029,0.2119,0.2145,0.2174,0.214,0.2431,0.2426,0.2457,0.2471,0.2483,0.2367,0,0,0,0,0]},{"header":{"parameterUnit":"m.s-1","parameterCategory":2,"la1":30.2991,"la2":30.254,"lo1":-89.0895,"lo2":-89.0444,"dy":0.0017,"dx":0.0017,"nx":28,"ny":28,"refTime":"2025-09-02T03:00:00:Z","depth":"4","parameterNumber":3,"parameterNumberName":"V-component_of_CURRENTS"},"data":[0,0,0,0,0,0,0,0,0,0,0,0,0,0,0,0,0,0,0,0,0,0,0,0,0,0,0,0,0,0,0,0,0,0,0,0,0,0,0,0,0,0,0,0,0,0,0,0,0,0,0,0,0,0,0,0,0,0,0.0132,0.0132,0,0.0106,0.0106,0.0105,0.008,0.008,0.008,0.008,0.003,0.0029,0.0028,0,0,0,0,0,0,0,0,0,0,0,0,0,0.0133,0.0133,0.0132,0.0132,0.0132,0.0106,0.0106,0.0105,0.008,0.008,0.008,0.008,0.003,0.0029,0.0028,0,0,0,0,0,0,0,0,0,0,0,0,0,0.0121,0.0133,0.0132,0.0117,0.0116,0.0106,0.0106,0.0105,0.0081,0.008,0.008,0.008,0.0031,0.0029,0.0027,0.0023,0,0,0.0022,0.0021,0,0,0,0,0,0,0,0,0.0122,0.0121,0.012,0.0118,0.0117,0.0097,0.0088,0.0077,0.0081,0.0092,0.008,0.008,0.0051,0.0048,0.0042,0.002,0.0018,0.0022,0.0021,0.002,0.002,0,0,0,0,0,0,0,0.0123,0.0122,0.012,0.012,0.0118,0.0103,0.0101,0.0086,0.0072,0.0091,0.009,0.0089,0.005,0.0044,0.0041,0.0017,0.0022,0.0021,0.002,0.0019,-0.0004,-0.0004,0,0,0,0,0,0,0.0131,0.0123,0.0121,0.012,0.012,0.0103,0.0101,0.0103,0.0073,0.0069,0.009,0.0088,0.0047,0.0043,0.0039,0.0051,0.002,0.0019,0.0018,-0.0004,-0.0004,-0.0003,0,0,0,0,0,0,0.0131,0.0131,0.0122,0.0122,0.012,0.0104,0.0106,0.0102,0.0099,0.0072,0.0067,0.009,0.0047,0.0041,0.0036,0.0048,0.0018,0.0016,-0.0005,-0.0004,-0.0004,0.0062,0,0,0,0,0,0,0.0131,0.0131,0.0136,0.0122,0.012,0.0126,0.0106,0.0102,0.01,0.0098,0.0071,0.0066,0.0046,0.0039,0.0034,0.0045,0.0015,-0.0005,-0.0005,-0.0004,0.0059,0.0064,0.0069,0,0,0,0,0,0.0131,0.0144,0.0136,0.0136,0.0127,0.0127,0.0124,0.0111,0.01,0.0105,0.0088,0.0067,0.004,0.0038,0.0032,0.0043,-0.0006,-0.0005,-0.0004,0.0057,0.0063,0.0069,0,0,0,0,0,0,0.0149,0.0143,0.0134,0.0144,0.0139,0.0123,0.0127,0.0116,0.0106,0.0102,0.0075,0.007,0.0068,0.0046,0.0044,0.0037,0.0012,0.0012,0.006,0.0066,0.0071,0.0079,0.0014,0,0,0,0,0,0.0155,0.0161,0.0151,0.0159,0.0159,0.0142,0.014,0.013,0.012,0.0115,0.0098,0.0078,0.0067,0.006,0.0044,0.0043,0.0008,0.0044,0.0049,0.0054,0.0056,0.0013,0.0015,-0.0,-0.0,-0.0,0,0,0.0164,0.0161,0.0164,0.0163,0.0156,0.0167,0.014,0.0141,0.0151,0.0111,0.0119,0.0096,0.007,0.0071,0.0067,0.0055,0.004,0.0055,0.0059,0.0059,0.0015,0.0016,0.0017,0.0,0.0,0.0,0,0,0.0188,0.0182,0.0196,0.0197,0.0192,0.0184,0.0188,0.0176,0.0173,0.0174,0.015,0.0136,0.0118,0.0104,0.0094,0.0117,0.0069,0.0109,0.0143,0.0101,0.0102,0.0102,0.0063,0.0059,0.0112,0.0112,0.0112,0,0.0199,0.0216,0.02,0.0216,0.0224,0.0197,0.0219,0.0213,0.0201,0.0202,0.0185,0.0157,0.0135,0.0135,0.0143,0.0129,0.0095,0.0124,0.0108,0.0108,0.0107,0.0066,0.0061,0.0115,0.0115,0.0114,0.0114,0,0.0233,0.0248,0.0258,0.027,0.0276,0.0289,0.0283,0.0287,0.0274,0.0261,0.0255,0.0221,0.0204,0.0194,0.0176,0.0166,0.0141,0.012,0.0094,0.0112,0.0068,0.0062,0.012,0.0119,0.0118,0.0117,0,0,0.0259,0.0279,0.0285,0.0305,0.0308,0.0322,0.0339,0.0348,0.0363,0.0333,0.0344,0.0314,0.0283,0.027,0.024,0.0203,0.017,0.0164,0.016,0.0129,0.0076,0.0065,0.0057,0.0143,0.0143,0.0142,0.0049,0,0.0293,0.0337,0.0338,0.0386,0.0409,0.0401,0.0422,0.0423,0.0414,0.0416,0.0368,0.0364,0.0316,0.0311,0.0266,0.0196,0.0155,0.0197,0.006,0.0056,0.0047,0.005,0.014,0.0044,0.0042,0.0041,0.004,0,0.033,0.0355,0.0406,0.0449,0.0459,0.0485,0.0518,0.0535,0.0522,0.0512,0.0485,0.0444,0.0398,0.0352,0.0229,0.0256,0.0174,0.0109,0.0104,0.0066,0.0033,0.002,0.0028,0.0029,0.003,0.0031,0.0032,0,0.0359,0.041,0.0454,0.0469,0.0505,0.0535,0.0558,0.0563,0.059,0.0576,0.0581,0.0506,0.0479,0.0363,0.0229,0.0227,0.0082,0.0061,-0.0028,-0.003,-0.0021,-0.0021,-0.0029,-0.0029,-0.0029,-0.0029,-0.0029,0,0.0396,0.0436,0.0476,0.0502,0.057,0.0578,0.0642,0.0653,0.0668,0.07,0.0634,0.0631,0.0478,0.0378,0.0247,0.0089,0.009,-0.0023,-0.0054,0.0009,0.0014,-0.0026,-0.0024,-0.0032,-0.0032,-0.0031,-0.003,0,0.0422,0.0442,0.0504,0.0558,0.0586,0.0636,0.0715,0.0754,0.0758,0.0798,0.0798,0.0722,0.0588,0.0424,0.0234,0.0123,-0.0031,-0.0087,-0.0004,-0.0029,-0.012,-0.0114,-0.0194,-0.0195,-0.0196,-0.0197,-0.0197,0,0.0437,0.0467,0.0552,0.0599,0.0631,0.0708,0.0761,0.0799,0.0843,0.0851,0.0869,0.0765,0.0689,0.0416,0.0234,-0.0022,-0.0059,-0.014,-0.0135,-0.0114,-0.0137,-0.0129,-0.0122,-0.0199,-0.0199,-0.0199,-0.02,0,0.0469,0.0499,0.0551,0.0646,0.0718,0.0803,0.0881,0.092,0.0956,0.0961,0.0927,0.0793,0.0641,0.0423,0.0223,0.004,-0.0089,-0.0151,-0.015,-0.0146,-0.0122,-0.0141,-0.0133,-0.0203,-0.0202,-0.0202,-0.0202,0,0.0495,0.0538,0.0607,0.0691,0.0783,0.0866,0.091,0.0956,0.0997,0.0997,0.0982,0.0819,0.0727,0.0455,0.0271,0.0087,0.0038,-0.0022,-0.0029,-0.0027,0.0044,0.0101,0.0062,0,0,0,0,0,0.0519,0.0566,0.0646,0.0738,0.0827,0.0881,0.0975,0.1006,0.1038,0.1023,0.1006,0.0864,0.0598,0.0485,0.0299,0.0239,-0.0002,0.0013,-0.0077,-0.0222,-0.0218,-0.0163,0,0,0,0,0,0,0.0535,0.0609,0.0646,0.0757,0.082,0.0924,0.0983,0.1009,0.1001,0.1004,0.0867,0.0806,0.0546,0.0697,0.0289,0.0235,0.015,-0.0108,-0.0113,-0.0224,-0.022,-0.0217,-0.016,0,0,0,0,0]}]]